When you browse on this site, cookies collect data to enhance your experience and personalize the content and advertising you see.
Visit our Privacy Policy to learn more. By continuing to use the site, you agree to this use of cookies and data.
  • In Hungary
  • List of Countries
  • For 7 days
  • Water Temperature
  • Satellite Maps
  • Weather Map
  • News
  • Weather Widgets
  • user-avatar
    Login

    Hourly Weather Naron

    Today, 16 January, Wednesday

    Time Temperature Precipitation Wind Pressure Humidity
    00:00 +8°C° 0 mm 3 mps 760 mmHg 86%
    01:00 +8°C° 0 mm 3 mps 760 mmHg 87%
    02:00 +7°C° 0 mm 4 mps 760 mmHg 87%
    03:00 +7°C° 0 mm 4 mps 759 mmHg 88%
    04:00 +8°C° 0 mm 4 mps 759 mmHg 89%
    05:00 +8°C° 0 mm 4 mps 759 mmHg 90%
    06:00 +10°C° 0.1 mm 3 mps 759 mmHg 91%
    07:00 +10°C° 0.1 mm 3 mps 759 mmHg 92%
    08:00 +10°C° 0.1 mm 3 mps 759 mmHg 92%
    09:00 +10°C° 0.1 mm 3 mps 759 mmHg 92%
    10:00 +11°C° 0.1 mm 3 mps 759 mmHg 92%
    11:00 +11°C° 0.1 mm 3 mps 759 mmHg 91%
    12:00 +11°C° 0 mm 3 mps 759 mmHg 86%
    13:00 +12°C° 0 mm 3 mps 759 mmHg 80%
    14:00 +13°C° 0 mm 3 mps 759 mmHg 74%
    15:00 +12°C° 0.1 mm 3 mps 759 mmHg 80%
    16:00 +11°C° 0.1 mm 3 mps 760 mmHg 85%
    17:00 +10°C° 0.1 mm 3 mps 760 mmHg 91%
    18:00 +10°C° 0.5 mm 4 mps 760 mmHg 91%
    19:00 +10°C° 0.5 mm 4 mps 761 mmHg 91%
    20:00 +10°C° 0.5 mm 4 mps 762 mmHg 90%
    21:00 +8°C° 0 mm 4 mps 762 mmHg 89%
    22:00 +9°C° 0 mm 3 mps 762 mmHg 88%
    23:00 +8°C° 0 mm 3 mps 763 mmHg 86%

    Tomorrow, 17 January, Thursday

    Time Temperature Precipitation Wind Pressure Humidity
    00:00 +8°C° 0 mm 3 mps 763 mmHg 86%
    01:00 +7°C° 0 mm 2 mps 763 mmHg 85%
    02:00 +7°C° 0 mm 2 mps 763 mmHg 84%
    03:00 +7°C° 0.1 mm 2 mps 763 mmHg 84%
    04:00 +7°C° 0.1 mm 2 mps 763 mmHg 84%
    05:00 +7°C° 0.1 mm 2 mps 763 mmHg 84%
    06:00 +7°C° 0.1 mm 2 mps 764 mmHg 84%
    07:00 +7°C° 0.1 mm 2 mps 764 mmHg 84%
    08:00 +7°C° 0.1 mm 2 mps 764 mmHg 84%
    09:00 +9°C° 0.1 mm 2 mps 764 mmHg 80%
    10:00 +10°C° 0.1 mm 2 mps 764 mmHg 76%
    11:00 +12°C° 0.1 mm 2 mps 765 mmHg 73%
    12:00 +12°C° 0.1 mm 2 mps 764 mmHg 72%
    13:00 +11°C° 0.1 mm 3 mps 764 mmHg 72%
    14:00 +11°C° 0.1 mm 3 mps 764 mmHg 71%
    15:00 +10°C° 0 mm 2 mps 764 mmHg 75%
    16:00 +9°C° 0 mm 2 mps 764 mmHg 78%
    17:00 +8°C° 0 mm 2 mps 765 mmHg 82%
    18:00 +8°C° 0 mm 1 mps 765 mmHg 83%
    19:00 +8°C° 0 mm 1 mps 765 mmHg 84%
    20:00 +6°C° 0 mm 0 mps 765 mmHg 86%
    21:00 +7°C° 0 mm 1 mps 765 mmHg 87%
    22:00 +7°C° 0 mm 1 mps 764 mmHg 88%
    23:00 +6°C° 0 mm 2 mps 764 mmHg 89%

    Day after tomorrow, 18 January, Friday

    Time Temperature Precipitation Wind Pressure Humidity
    00:00 +6°C° 0 mm 2 mps 764 mmHg 89%
    01:00 +6°C° 0 mm 2 mps 764 mmHg 88%
    02:00 +6°C° 0 mm 2 mps 764 mmHg 87%
    03:00 +5°C° 0.2 mm 3 mps 763 mmHg 87%
    04:00 +5°C° 0.2 mm 3 mps 763 mmHg 87%
    05:00 +5°C° 0.2 mm 3 mps 762 mmHg 87%
    06:00 +5°C° 0.9 mm 3 mps 762 mmHg 89%
    07:00 +5°C° 0.9 mm 4 mps 762 mmHg 90%
    08:00 +5°C° 0.9 mm 4 mps 762 mmHg 92%
    09:00 +6°C° 0.6 mm 5 mps 761 mmHg 92%
    10:00 +6°C° 0.6 mm 5 mps 761 mmHg 92%
    11:00 +6°C° 0.6 mm 5 mps 761 mmHg 92%
    12:00 +7°C° 0.1 mm 5 mps 760 mmHg 92%
    13:00 +7°C° 0.1 mm 5 mps 760 mmHg 91%
    14:00 +8°C° 0.1 mm 6 mps 759 mmHg 91%
    15:00 +8°C° 0.1 mm 5 mps 759 mmHg 92%
    16:00 +8°C° 0.1 mm 5 mps 760 mmHg 92%
    17:00 +8°C° 0.1 mm 5 mps 760 mmHg 92%
    18:00 +8°C° 0.2 mm 4 mps 760 mmHg 93%
    19:00 +10°C° 0.2 mm 3 mps 760 mmHg 93%
    20:00 +10°C° 0.2 mm 2 mps 760 mmHg 93%
    21:00 +10°C° 0.1 mm 2 mps 760 mmHg 93%
    22:00 +9°C° 0.1 mm 3 mps 760 mmHg 92%
    23:00 +9°C° 0.1 mm 3 mps 760 mmHg 92%

    19 January, Saturday

    Time Temperature Precipitation Wind Pressure Humidity
    00:00 +9°C° 0 mm 3 mps 760 mmHg 92%
    01:00 +9°C° 0 mm 3 mps 759 mmHg 92%
    02:00 +8°C° 0 mm 4 mps 759 mmHg 92%
    03:00 +8°C° 0.4 mm 4 mps 758 mmHg 92%
    04:00 +8°C° 0.4 mm 4 mps 757 mmHg 93%
    05:00 +8°C° 0.4 mm 5 mps 757 mmHg 93%
    06:00 +8°C° 1.8 mm 5 mps 756 mmHg 93%
    07:00 +8°C° 1.8 mm 6 mps 756 mmHg 93%
    08:00 +9°C° 1.8 mm 7 mps 755 mmHg 94%
    09:00 +10°C° 2.9 mm 6 mps 754 mmHg 94%
    10:00 +10°C° 2.9 mm 6 mps 754 mmHg 94%
    11:00 +11°C° 2.9 mm 6 mps 753 mmHg 95%
    12:00 +12°C° 2.1 mm 5 mps 753 mmHg 96%
    13:00 +12°C° 2.1 mm 5 mps 752 mmHg 97%
    14:00 +13°C° 2.1 mm 4 mps 752 mmHg 98%
    15:00 +12°C° 0.1 mm 5 mps 753 mmHg 96%
    16:00 +10°C° 0.1 mm 5 mps 754 mmHg 94%
    17:00 +9°C° 0.1 mm 5 mps 755 mmHg 93%
    18:00 +9°C° 0.1 mm 5 mps 756 mmHg 92%
    19:00 +10°C° 0.1 mm 4 mps 757 mmHg 92%
    20:00 +10°C° 0.1 mm 3 mps 758 mmHg 92%
    21:00 +10°C° 0.2 mm 4 mps 758 mmHg 90%
    22:00 +8°C° 0.2 mm 4 mps 759 mmHg 89%
    23:00 +8°C° 0.2 mm 4 mps 759 mmHg 87%

    20 January, Sunday

    Time Temperature Precipitation Wind Pressure Humidity
    00:00 +8°C° 0.1 mm 4 mps 759 mmHg 88%
    01:00 +9°C° 0.1 mm 3 mps 760 mmHg 89%
    02:00 +8°C° 0.1 mm 3 mps 760 mmHg 90%
    03:00 +8°C° 0.3 mm 4 mps 760 mmHg 91%
    04:00 +8°C° 0.3 mm 4 mps 761 mmHg 91%
    05:00 +8°C° 0.3 mm 4 mps 761 mmHg 92%
    06:00 +10°C° 0.3 mm 4 mps 762 mmHg 91%
    07:00 +10°C° 0.3 mm 4 mps 762 mmHg 91%
    08:00 +10°C° 0.3 mm 4 mps 763 mmHg 90%
    09:00 +10°C° 0.3 mm 4 mps 763 mmHg 88%
    10:00 +11°C° 0.3 mm 4 mps 763 mmHg 87%
    11:00 +11°C° 0.3 mm 4 mps 764 mmHg 85%
    12:00 +11°C° 0.3 mm 4 mps 764 mmHg 85%
    13:00 +11°C° 0.3 mm 4 mps 763 mmHg 84%
    14:00 +11°C° 0.3 mm 4 mps 763 mmHg 84%
    15:00 +11°C° 0.4 mm 4 mps 764 mmHg 86%
    16:00 +10°C° 0.4 mm 4 mps 764 mmHg 89%
    17:00 +8°C° 0.4 mm 4 mps 765 mmHg 92%
    18:00 +8°C° 0.4 mm 4 mps 765 mmHg 92%
    19:00 +8°C° 0.4 mm 4 mps 766 mmHg 92%
    20:00 +9°C° 0.4 mm 3 mps 766 mmHg 92%
    21:00 +8°C° 0.3 mm 4 mps 766 mmHg 92%
    22:00 +8°C° 0.3 mm 4 mps 767 mmHg 92%
    23:00 +8°C° 0.3 mm 4 mps 767 mmHg 92%

    21 January, Monday

    Time Temperature Precipitation Wind Pressure Humidity
    00:00 +8°C° 0.2 mm 4 mps 767 mmHg 91%
    01:00 +8°C° 0.2 mm 4 mps 767 mmHg 90%
    02:00 +8°C° 0.2 mm 5 mps 767 mmHg 89%
    03:00 +8°C° 0.1 mm 5 mps 767 mmHg 89%
    04:00 +8°C° 0.1 mm 5 mps 767 mmHg 89%
    05:00 +8°C° 0.1 mm 5 mps 767 mmHg 89%
    06:00 +8°C° 0.2 mm 5 mps 768 mmHg 89%
    07:00 +8°C° 0.2 mm 4 mps 768 mmHg 89%
    08:00 +8°C° 0.2 mm 4 mps 769 mmHg 89%
    09:00 +8°C° 0.2 mm 5 mps 769 mmHg 87%
    10:00 +9°C° 0.2 mm 5 mps 769 mmHg 84%
    11:00 +9°C° 0.2 mm 5 mps 769 mmHg 82%
    12:00 +10°C° 0.1 mm 5 mps 769 mmHg 80%
    13:00 +10°C° 0.1 mm 5 mps 769 mmHg 78%
    14:00 +10°C° 0.1 mm 5 mps 769 mmHg 75%
    15:00 +9°C° 0.1 mm 5 mps 769 mmHg 78%
    16:00 +8°C° 0.1 mm 5 mps 769 mmHg 81%
    17:00 +8°C° 0.1 mm 4 mps 769 mmHg 85%
    18:00 +7°C° 0.1 mm 4 mps 770 mmHg 85%
    19:00 +7°C° 0.1 mm 4 mps 770 mmHg 86%
    20:00 +7°C° 0.1 mm 4 mps 771 mmHg 87%
    21:00 +7°C° 0.1 mm 4 mps 770 mmHg 87%
    22:00 +7°C° 0.1 mm 4 mps 770 mmHg 88%
    23:00 +7°C° 0.1 mm 3 mps 770 mmHg 89%
    Show more